{"data":{"norad_id":45156,"epoch":"2026-05-25T04:24:49.537152Z","epoch_age_seconds":59094,"freshness":"FRESH","line1":"1 45156U 20008AB  26145.18390668 -.00000246  00000+0 -74211-3 0  9991","line2":"2 45156  87.8852  40.8414 0002137  89.7051 270.4321 13.10370631304927","mean_motion":13.10370631,"eccentricity":0.0002137,"inclination_deg":87.8852,"raan_deg":40.8414,"arg_perigee_deg":89.7051,"mean_anomaly_deg":270.4321,"bstar":-0.00074211,"rev_number":30492,"period_min":109.89257282889,"perigee_km":1220.1015123415,"apogee_km":1223.349693618,"semimajor_km":7599.8626029797,"source":"CELESTRAK","updated_at":"2026-05-25T13:38:22.338588Z"}}